Location: Marcé
(47.5801°N, 0.3280°W)
Time: 14:35:42
(UTC+01:00)

Tiros 1 despin weight - Pass Details

Date: 11 December 2021
Orbit: 592 x 641 km, 48.2° (Epoch: 19 January)

Event Time Altitude Azimuth Distance (km) Brightness Sun altitude
Rises 14:50:53 0° 279° (W) 2,842 ? 14.7°
Reaches altitude 10° 14:53:11 10° 279° (W) 1,934 ? 14.5°
Maximum altitude 14:57:37 90° 344° (NNW) 598 ? 14.2°
Drops below altitude 10° 15:02:02 10° 101° (E) 1,920 ? 13.8°
Sets 15:04:18 0° 101° (E) 2,820 ? 13.6°
